[[{"header":{"parameterUnit":"m.s-1","parameterCategory":1,"la1":30.2991,"la2":30.254,"lo1":-89.0895,"lo2":-89.0444,"dy":0.0017,"dx":0.0017,"nx":28,"ny":28,"refTime":"2023-08-23T03:00:00:Z","depth":0,"parameterNumber":2,"parameterNumberName":"U-component_of_WINDS"},"data":[0,0,0,0,0,0,0,0,0,0,0,0,0,0,0,0,0,0,0,0,0,0,0,0,0,0,0,0,0,0,0,0,0,0,0,0,0,0,0,0,0,0,0,0,0,0,0,0,0,0,0,0,0,0,0,0,0,0,-0.903,-0.903,0,-0.9052,-0.9052,-0.9053,-0.906,-0.906,-0.906,-0.906,-0.9082,-0.9083,-0.9083,0,0,0,0,0,0,0,0,0,0,0,0,0,-0.8993,-0.8994,-0.903,-0.903,-0.903,-0.9052,-0.9052,-0.9053,-0.906,-0.906,-0.906,-0.906,-0.9082,-0.9082,-0.9083,0,0,0,0,0,0,0,0,0,0,0,0,0,-0.9012,-0.8994,-0.903,-0.9037,-0.9037,-0.9052,-0.9052,-0.9053,-0.906,-0.906,-0.906,-0.906,-0.9081,-0.9082,-0.9083,-0.9092,0,0,-0.9087,-0.9087,0,0,0,0,0,0,0,0,-0.9011,-0.9013,-0.9035,-0.9036,-0.9037,-0.9053,-0.9048,-0.9066,-0.906,-0.9051,-0.906,-0.906,-0.9072,-0.9074,-0.9079,-0.9093,-0.9094,-0.9087,-0.9087,-0.9088,-0.9088,0,0,0,0,0,0,0,-0.9009,-0.9012,-0.9038,-0.9036,-0.9037,-0.9039,-0.9041,-0.9051,-0.9062,-0.9052,-0.9053,-0.9055,-0.9073,-0.9078,-0.9079,-0.9095,-0.9087,-0.9087,-0.9088,-0.9088,-0.9119,-0.9119,0,0,0,0,0,0,-0.9007,-0.9011,-0.9038,-0.9039,-0.9023,-0.9039,-0.9042,-0.9048,-0.9062,-0.9064,-0.9055,-0.9056,-0.9076,-0.9078,-0.908,-0.9092,-0.9088,-0.9089,-0.9089,-0.9118,-0.9119,-0.9119,0,0,0,0,0,0,-0.9006,-0.9009,-0.9037,-0.9025,-0.9029,-0.904,-0.9047,-0.9049,-0.9053,-0.9065,-0.9067,-0.9058,-0.9076,-0.9079,-0.9089,-0.9093,-0.9089,-0.909,-0.9118,-0.9119,-0.9119,-0.9115,0,0,0,0,0,0,-0.9005,-0.9009,-0.9012,-0.9025,-0.9029,-0.9046,-0.9047,-0.9049,-0.9055,-0.9056,-0.9068,-0.907,-0.9076,-0.9088,-0.909,-0.9094,-0.9091,-0.9118,-0.9118,-0.9119,-0.9115,-0.9116,-0.9116,0,0,0,0,0,-0.9004,-0.901,-0.9013,-0.9016,-0.9034,-0.9046,-0.9049,-0.9056,-0.9055,-0.9059,-0.9067,-0.9069,-0.9092,-0.9089,-0.9092,-0.9096,-0.9118,-0.9118,-0.9119,-0.9115,-0.9116,-0.9116,0,0,0,0,0,0,-0.8997,-0.9012,-0.9015,-0.9026,-0.9035,-0.9047,-0.9052,-0.9056,-0.9065,-0.9065,-0.9073,-0.9076,-0.9086,-0.9092,-0.9088,-0.9106,-0.9105,-0.9106,-0.9101,-0.9102,-0.9102,-0.91,-0.9092,0,0,0,0,0,-0.8997,-0.9006,-0.9018,-0.9027,-0.9031,-0.9041,-0.9046,-0.9051,-0.9061,-0.9064,-0.9073,-0.9082,-0.9091,-0.9097,-0.9106,-0.9116,-0.9119,-0.912,-0.9121,-0.9121,-0.9122,-0.9128,-0.9129,-0.912,-0.912,-0.912,0,0,-0.8997,-0.9006,-0.9011,-0.9026,-0.9033,-0.9042,-0.9044,-0.9053,-0.906,-0.9066,-0.9077,-0.9083,-0.9094,-0.9105,-0.911,-0.911,-0.9125,-0.9121,-0.9121,-0.9122,-0.9129,-0.913,-0.913,-0.9121,-0.9121,-0.9121,0,0,-0.9001,-0.9009,-0.9017,-0.9025,-0.9036,-0.9043,-0.9045,-0.9057,-0.9062,-0.9073,-0.9078,-0.9086,-0.9101,-0.9109,-0.9114,-0.9122,-0.9125,-0.9125,-0.9126,-0.9132,-0.9133,-0.9134,-0.9137,-0.9138,-0.9125,-0.9125,-0.9125,0,-0.8999,-0.9013,-0.9021,-0.903,-0.9036,-0.9043,-0.9051,-0.9058,-0.9072,-0.9076,-0.9076,-0.9096,-0.9103,-0.9116,-0.9118,-0.9123,-0.9125,-0.9123,-0.9132,-0.9133,-0.9134,-0.9137,-0.9138,-0.9125,-0.9125,-0.9125,-0.9125,0,-0.9011,-0.902,-0.9025,-0.9039,-0.9046,-0.9054,-0.9063,-0.907,-0.9074,-0.908,-0.9092,-0.9101,-0.9113,-0.9116,-0.912,-0.913,-0.913,-0.9131,-0.913,-0.9134,-0.9137,-0.9139,-0.9125,-0.9125,-0.9125,-0.9125,0,0,-0.9011,-0.9029,-0.9031,-0.9038,-0.9051,-0.9058,-0.9067,-0.9079,-0.9084,-0.9093,-0.9101,-0.9114,-0.9116,-0.9122,-0.9127,-0.9133,-0.9139,-0.9134,-0.9134,-0.9135,-0.9151,-0.915,-0.9151,-0.9141,-0.9141,-0.9142,-0.915,0,-0.9017,-0.9034,-0.9041,-0.9055,-0.9064,-0.907,-0.9078,-0.9087,-0.9094,-0.9102,-0.9109,-0.9119,-0.9119,-0.9124,-0.9129,-0.9137,-0.9142,-0.9136,-0.9149,-0.9149,-0.9146,-0.9153,-0.9152,-0.9159,-0.9151,-0.9151,-0.9151,0,-0.9027,-0.9036,-0.9051,-0.9064,-0.9068,-0.9075,-0.9086,-0.9094,-0.9104,-0.9109,-0.9117,-0.9121,-0.9131,-0.913,-0.9144,-0.914,-0.9145,-0.915,-0.915,-0.9152,-0.9151,-0.9155,-0.9162,-0.9163,-0.9153,-0.9153,-0.9153,0,-0.9026,-0.9043,-0.9054,-0.9059,-0.9074,-0.9079,-0.9085,-0.9096,-0.9102,-0.9112,-0.9117,-0.9127,-0.9133,-0.9141,-0.9149,-0.9147,-0.9162,-0.9162,-0.9166,-0.9166,-0.9169,-0.9169,-0.9177,-0.9172,-0.9172,-0.9172,-0.9172,0,-0.9032,-0.9041,-0.9054,-0.906,-0.907,-0.9079,-0.9089,-0.9095,-0.9105,-0.9113,-0.9119,-0.9126,-0.9136,-0.9145,-0.9151,-0.9162,-0.9164,-0.9168,-0.917,-0.9168,-0.9167,-0.9172,-0.9171,-0.9172,-0.9172,-0.9172,-0.9172,0,-0.9033,-0.9042,-0.9055,-0.9068,-0.9072,-0.9078,-0.909,-0.9097,-0.9104,-0.9114,-0.9117,-0.9128,-0.9139,-0.9147,-0.9161,-0.9165,-0.9177,-0.9178,-0.9173,-0.9174,-0.9178,-0.9178,-0.919,-0.9192,-0.9185,-0.9185,-0.9185,0,-0.9037,-0.9044,-0.9058,-0.9064,-0.9071,-0.908,-0.9087,-0.9096,-0.9103,-0.9116,-0.9121,-0.9132,-0.9142,-0.9159,-0.9168,-0.9178,-0.9181,-0.9184,-0.9182,-0.918,-0.9181,-0.9181,-0.9182,-0.9184,-0.9184,-0.9184,-0.9184,0,-0.9042,-0.9046,-0.9056,-0.9068,-0.9076,-0.9085,-0.9095,-0.9099,-0.911,-0.9117,-0.9128,-0.9136,-0.915,-0.9162,-0.9173,-0.918,-0.9184,-0.9185,-0.9187,-0.9185,-0.9182,-0.9184,-0.9174,-0.9185,-0.9185,-0.9185,-0.9184,-0.9184,-0.9045,-0.9051,-0.9063,-0.9074,-0.9082,-0.9091,-0.9098,-0.9106,-0.9116,-0.9128,-0.9133,-0.9145,-0.9155,-0.9172,-0.9178,-0.9188,-0.9188,-0.919,-0.9191,-0.9191,-0.9191,-0.918,-0.919,-0.919,-0.919,-0.919,-0.919,0,-0.9051,-0.9059,-0.9068,-0.9082,-0.909,-0.9094,-0.9104,-0.9111,-0.9122,-0.9132,-0.9141,-0.9154,-0.9165,-0.9175,-0.9187,-0.9192,-0.9194,-0.9195,-0.9195,-0.9196,-0.919,-0.9188,-0.9193,-0.9193,-0.9193,-0.9193,-0.9193,-0.9193,-0.9055,-0.9066,-0.9072,-0.9088,-0.9096,-0.9107,-0.9113,-0.9122,-0.9129,-0.9144,-0.9153,-0.916,-0.917,-0.9182,-0.9193,-0.9196,-0.92,-0.92,-0.9203,-0.9197,-0.9197,-0.9196,-0.9194,-0.9201,-0.9201,-0.9208,-0.9208,-0.9208]},{"header":{"parameterUnit":"m.s-1","parameterCategory":1,"la1":30.2991,"la2":30.254,"lo1":-89.0895,"lo2":-89.0444,"dy":0.0017,"dx":0.0017,"nx":28,"ny":28,"refTime":"2023-08-23T03:00:00:Z","depth":0,"parameterNumber":3,"parameterNumberName":"V-component_of_WINDS"},"data":[0,0,0,0,0,0,0,0,0,0,0,0,0,0,0,0,0,0,0,0,0,0,0,0,0,0,0,0,0,0,0,0,0,0,0,0,0,0,0,0,0,0,0,0,0,0,0,0,0,0,0,0,0,0,0,0,0,0,-0.6625,-0.6625,0,-0.6628,-0.6628,-0.6628,-0.6627,-0.6627,-0.6627,-0.6627,-0.6631,-0.6631,-0.6631,0,0,0,0,0,0,0,0,0,0,0,0,0,-0.6617,-0.6618,-0.6625,-0.6625,-0.6625,-0.6628,-0.6628,-0.6628,-0.6627,-0.6627,-0.6627,-0.6627,-0.6631,-0.6631,-0.6631,0,0,0,0,0,0,0,0,0,0,0,0,0,-0.6621,-0.6618,-0.6625,-0.6624,-0.6624,-0.6628,-0.6628,-0.6628,-0.6627,-0.6627,-0.6627,-0.6627,-0.6631,-0.6631,-0.6631,-0.6635,0,0,-0.6632,-0.6632,0,0,0,0,0,0,0,0,-0.6621,-0.6621,-0.6624,-0.6624,-0.6624,-0.6627,-0.6627,-0.6631,-0.6627,-0.6626,-0.6627,-0.6627,-0.663,-0.663,-0.6631,-0.6635,-0.6636,-0.6632,-0.6632,-0.6632,-0.6632,0,0,0,0,0,0,0,-0.662,-0.6621,-0.6626,-0.6624,-0.6624,-0.6624,-0.6625,-0.6628,-0.6628,-0.6626,-0.6626,-0.6626,-0.663,-0.6631,-0.6631,-0.6636,-0.6632,-0.6632,-0.6632,-0.6632,-0.6645,-0.6645,0,0,0,0,0,0,-0.662,-0.6621,-0.6626,-0.6626,-0.6622,-0.6625,-0.6625,-0.6626,-0.6628,-0.6629,-0.6627,-0.6626,-0.663,-0.6631,-0.6631,-0.6636,-0.6632,-0.6632,-0.6633,-0.6644,-0.6645,-0.6645,0,0,0,0,0,0,-0.662,-0.662,-0.6626,-0.6623,-0.6624,-0.6625,-0.6626,-0.6626,-0.6627,-0.6629,-0.6629,-0.6627,-0.663,-0.6631,-0.6634,-0.6637,-0.6633,-0.6633,-0.6644,-0.6645,-0.6645,-0.6647,0,0,0,0,0,0,-0.662,-0.662,-0.6622,-0.6623,-0.6624,-0.6629,-0.6626,-0.6627,-0.6628,-0.6628,-0.663,-0.663,-0.663,-0.6634,-0.6635,-0.6637,-0.6633,-0.6644,-0.6644,-0.6645,-0.6647,-0.6647,-0.6648,0,0,0,0,0,-0.6619,-0.6622,-0.6622,-0.6622,-0.6626,-0.6629,-0.6629,-0.6629,-0.6628,-0.663,-0.6631,-0.663,-0.6636,-0.6634,-0.6635,-0.6637,-0.6644,-0.6644,-0.6645,-0.6646,-0.6647,-0.6648,0,0,0,0,0,0,-0.6621,-0.6622,-0.6622,-0.6625,-0.6627,-0.6628,-0.663,-0.663,-0.6632,-0.6632,-0.6632,-0.6633,-0.6636,-0.6637,-0.6635,-0.6642,-0.664,-0.664,-0.6641,-0.6642,-0.6642,-0.6642,-0.6633,0,0,0,0,0,-0.6621,-0.6623,-0.6625,-0.6628,-0.6628,-0.6629,-0.6631,-0.6631,-0.6632,-0.6633,-0.6634,-0.6636,-0.6639,-0.664,-0.6643,-0.6647,-0.6648,-0.6649,-0.665,-0.665,-0.665,-0.6653,-0.6654,-0.6646,-0.6646,-0.6646,0,0,-0.6623,-0.6624,-0.6625,-0.6628,-0.6629,-0.6632,-0.663,-0.6632,-0.6634,-0.6633,-0.6637,-0.6638,-0.664,-0.6644,-0.6646,-0.6645,-0.6653,-0.665,-0.6651,-0.6651,-0.6654,-0.6654,-0.6655,-0.6646,-0.6646,-0.6646,0,0,-0.6626,-0.6627,-0.663,-0.6631,-0.6633,-0.6634,-0.6635,-0.6637,-0.6637,-0.6641,-0.664,-0.6643,-0.6647,-0.6649,-0.665,-0.6656,-0.6655,-0.6657,-0.6659,-0.6662,-0.6662,-0.6663,-0.6665,-0.6666,-0.6657,-0.6657,-0.6657,0,-0.6628,-0.6631,-0.6631,-0.6634,-0.6635,-0.6635,-0.6638,-0.6639,-0.6642,-0.6643,-0.6642,-0.6648,-0.6649,-0.6654,-0.6656,-0.6657,-0.6658,-0.6656,-0.6662,-0.6663,-0.6663,-0.6665,-0.6666,-0.6657,-0.6657,-0.6657,-0.6657,0,-0.6633,-0.6635,-0.6637,-0.664,-0.6642,-0.6644,-0.6646,-0.6647,-0.6648,-0.6649,-0.6653,-0.6654,-0.6657,-0.6659,-0.6659,-0.6664,-0.6663,-0.6662,-0.666,-0.6664,-0.6666,-0.6667,-0.6657,-0.6657,-0.6657,-0.6657,0,0,-0.6636,-0.664,-0.6641,-0.6642,-0.6645,-0.6647,-0.665,-0.6653,-0.6655,-0.6657,-0.666,-0.6664,-0.6663,-0.6665,-0.6665,-0.6668,-0.6672,-0.6667,-0.6667,-0.6668,-0.6678,-0.6679,-0.668,-0.6672,-0.6672,-0.6672,-0.6678,0,-0.664,-0.6645,-0.6646,-0.6651,-0.6654,-0.6654,-0.6657,-0.6659,-0.666,-0.6663,-0.6664,-0.6667,-0.6666,-0.6667,-0.6669,-0.6671,-0.6674,-0.6671,-0.6675,-0.6675,-0.6674,-0.6681,-0.6681,-0.6686,-0.6679,-0.6679,-0.6679,0,-0.6645,-0.6648,-0.6653,-0.6656,-0.6657,-0.6659,-0.6662,-0.6665,-0.6667,-0.6668,-0.6671,-0.6671,-0.6675,-0.6673,-0.6678,-0.6676,-0.6678,-0.6679,-0.6679,-0.6679,-0.6677,-0.6681,-0.6688,-0.6689,-0.668,-0.668,-0.668,0,-0.6648,-0.6652,-0.6656,-0.6657,-0.6661,-0.6662,-0.6664,-0.6667,-0.6669,-0.6671,-0.6673,-0.6676,-0.6678,-0.6681,-0.6682,-0.6681,-0.6688,-0.6686,-0.6689,-0.6689,-0.669,-0.669,-0.6697,-0.6691,-0.6691,-0.6691,-0.6691,0,-0.6652,-0.6655,-0.6657,-0.6659,-0.6663,-0.6664,-0.6668,-0.667,-0.6672,-0.6675,-0.6676,-0.6678,-0.668,-0.6683,-0.6685,-0.6689,-0.669,-0.6691,-0.6691,-0.6691,-0.6691,-0.6692,-0.6691,-0.6692,-0.6692,-0.6692,-0.6691,0,-0.6655,-0.6657,-0.6661,-0.6664,-0.6665,-0.6667,-0.667,-0.6672,-0.6674,-0.6678,-0.6679,-0.6681,-0.6685,-0.6687,-0.6692,-0.6693,-0.6698,-0.6698,-0.6697,-0.6697,-0.67,-0.6699,-0.6708,-0.6709,-0.6703,-0.6703,-0.6703,0,-0.6657,-0.666,-0.6663,-0.6665,-0.6667,-0.667,-0.6672,-0.6674,-0.6676,-0.668,-0.6682,-0.6686,-0.6689,-0.6695,-0.6698,-0.6701,-0.6702,-0.6704,-0.6702,-0.6702,-0.6702,-0.6701,-0.6702,-0.6705,-0.6705,-0.6705,-0.6705,0,-0.6662,-0.6662,-0.6665,-0.6669,-0.6671,-0.6674,-0.6677,-0.6678,-0.6681,-0.6683,-0.6687,-0.669,-0.6695,-0.6699,-0.6703,-0.6705,-0.6705,-0.6706,-0.6706,-0.6706,-0.6705,-0.6706,-0.6698,-0.6705,-0.6705,-0.6705,-0.6705,-0.6705,-0.6665,-0.6667,-0.667,-0.6673,-0.6675,-0.6678,-0.6681,-0.6683,-0.6686,-0.669,-0.6691,-0.6696,-0.6699,-0.6705,-0.6707,-0.6711,-0.671,-0.6711,-0.6712,-0.6712,-0.6712,-0.6705,-0.6711,-0.6711,-0.6711,-0.6711,-0.6711,0,-0.6669,-0.6671,-0.6674,-0.6678,-0.6681,-0.6681,-0.6684,-0.6687,-0.669,-0.6694,-0.6697,-0.6702,-0.6706,-0.6709,-0.6713,-0.6716,-0.6716,-0.6717,-0.6716,-0.6717,-0.6712,-0.6711,-0.6716,-0.6716,-0.6716,-0.6716,-0.6716,-0.6716,-0.6671,-0.6676,-0.6677,-0.6682,-0.6684,-0.6689,-0.669,-0.6693,-0.6696,-0.6701,-0.6705,-0.6707,-0.671,-0.6715,-0.6719,-0.6719,-0.6721,-0.6722,-0.6723,-0.6718,-0.6717,-0.6717,-0.6716,-0.6722,-0.6722,-0.6727,-0.6727,-0.6727]}]]